Location: Newark
(46.7000°N, 60.6000°W)
Time: 00:40:02
(UTC+00:00)

SR - Visible Passes

Search period start: 27 October 2020 00:00
Search period end: 06 November 2020 00:00
Orbit: 581 x 874 km, 66.7° (Epoch: 26 October)

Date Brightness Start Highest point End Pass type
(mag) Time Alt. Az. Time Alt. Az. Time Alt. Az.
27 Oct ? 08:26:39 15° NNW 08:26:39 15° NNW 08:28:17 10° N visible
28 Oct ? 07:38:23 13° NNE 07:38:23 13° NNE 07:39:01 10° NNE visible
29 Oct ? 08:29:30 11° NNW 08:29:30 11° NNW 08:30:05 10° N visible
30 Oct ? 07:41:11 10° N 07:41:11 10° N 07:41:12 10° N visible
